Date String (YYYY-MM-DD hh:mm:ss) UTC,Instrument flags,absolute air pressure of the measurement (hPa),sample flow rate (lpm),inlet stack bypass flow (lpm),air temperature of the measurement (°C),ambient temperature measured by the external sensor (°C),aerosol sample conditioner tube jacket temperature (°C),OPC LED temperature (°C),internal box temperature (°C),relative humidity of the measurement (%),span deviation,mass concentration of particles derived from Lorenz-Mie calculation of OPC scattering (μg/m³),mass concentration of particles derived from Lorenz-Mie calculation of OPC scattering (μg/m³),mass concentration of particles derived from Lorenz-Mie calculation of OPC scattering (μg/m³)
DateTimeUTC,F1_M11,P_M11,Q1_M11,Q2_M11,T1_M11,T2_M11,T3_M11,T4_M11,T5_M11,U1_M11,ZSPAN_M11,X0_M11,X2_M11,X1_M11
2023-12-22 23:00:00,SystemResetWarning,0827.8,5.00,000.00,025.7,023.9,000.0,033.9,027.0,11.5,0000.0,0014.41,0006.49,0005.71
2023-12-22 23:01:00,SystemResetWarning,0827.8,4.99,000.00,025.7,024.1,000.0,033.9,027.1,11.5,0000.0,0013.88,0006.49,0005.71
2023-12-22 23:02:00,SystemResetWarning,0827.8,5.00,000.00,025.7,024.3,000.0,033.9,027.2,11.5,0000.0,0014.39,0006.51,0005.72
2023-12-22 23:03:00,SystemResetWarning,0827.8,5.02,000.00,025.8,024.5,000.0,033.9,027.3,11.4,0000.0,0014.94,0006.51,0005.73
2023-12-22 23:04:00,SystemResetWarning,0827.8,4.99,000.00,025.8,024.7,000.0,033.9,027.3,11.4,0000.0,0015.64,0006.53,0005.73
2023-12-22 23:05:00,SystemResetWarning,0827.8,5.00,000.00,025.8,024.8,000.0,033.9,027.4,11.3,0000.0,0015.88,0006.54,0005.74
2023-12-22 23:06:00,SystemResetWarning,0827.8,4.99,000.00,025.9,024.9,000.0,033.9,027.4,11.3,0000.0,0015.61,0006.56,0005.75
2023-12-22 23:07:00,SystemResetWarning,0827.8,5.01,000.00,025.9,025.0,000.0,034.0,027.4,11.3,0000.0,0016.10,0006.57,0005.76
2023-12-22 23:08:00,SystemResetWarning,0827.8,5.01,000.00,025.9,025.1,000.0,034.0,027.5,11.3,0000.0,0016.43,0006.49,0005.75
2023-12-22 23:09:00,SystemResetWarning,0827.8,5.00,000.00,026.0,025.1,000.0,034.0,027.5,11.3,0000.0,0016.44,0006.46,0005.74
2023-12-22 23:10:00,SystemResetWarning,0827.8,5.01,000.00,026.0,025.2,000.0,034.0,027.6,11.2,0000.0,0015.92,0006.47,0005.74
2023-12-22 23:11:00,SystemResetWarning,0827.8,5.00,000.00,026.0,025.3,000.0,034.1,027.6,11.2,0000.0,0016.63,0006.48,0005.74
2023-12-22 23:12:00,SystemResetWarning,0827.8,4.99,000.00,026.1,024.9,000.0,034.1,027.7,11.1,0000.0,0016.19,0006.47,0005.74
2023-12-22 23:13:00,SystemResetWarning,0827.8,5.00,000.00,026.0,022.9,000.0,034.1,027.5,11.2,0000.0,0015.52,0006.44,0005.73
2023-12-22 23:14:00,SystemResetWarning,0827.8,5.01,000.00,025.9,022.1,000.0,034.0,027.3,11.2,0000.0,0014.95,0006.45,0005.73
2023-12-22 23:15:00,SystemResetWarning,0827.7,5.02,000.00,025.8,022.3,000.0,034.0,026.7,11.4,0000.0,0014.21,0006.44,0005.71
2023-12-22 23:16:00,SystemResetWarning,0827.7,4.99,000.00,025.6,022.7,000.0,034.0,026.7,11.4,0000.0,0013.99,0006.43,0005.70
2023-12-22 23:17:00,SystemResetWarning,0827.7,4.99,000.00,025.6,023.1,000.0,033.9,026.7,11.5,0000.0,0013.91,0006.39,0005.68
2023-12-22 23:18:00,SystemResetWarning,0827.7,5.01,000.00,025.6,023.4,000.0,033.9,026.8,11.6,0000.0,0014.11,0006.38,0005.65
2023-12-22 23:19:00,SystemResetWarning,0827.7,5.01,000.00,025.6,023.7,000.0,033.9,026.9,11.7,0004.7,0014.70,0006.39,0005.62
2023-12-22 23:20:00,SystemResetWarning,0827.7,4.98,000.00,025.6,024.0,000.0,033.9,027.0,11.7,0003.0,0014.65,0006.37,0005.62
2023-12-22 23:21:00,SystemResetWarning,0827.7,5.00,000.00,025.6,024.2,000.0,033.9,027.1,11.8,0000.0,0015.00,0006.36,0005.60
2023-12-22 23:22:00,SystemResetWarning,0827.7,5.01,000.00,025.7,024.3,000.0,033.9,027.1,11.8,0002.3,0014.21,0006.35,0005.59
2023-12-22 23:23:00,SystemResetWarning,0827.7,4.98,000.00,025.7,024.5,000.0,033.9,027.2,11.8,0000.0,0014.42,0006.31,0005.58
2023-12-22 23:24:00,SystemResetWarning,0827.8,5.00,000.00,025.7,024.6,000.0,033.9,027.2,11.7,0000.0,0015.00,0006.31,0005.57
2023-12-22 23:25:00,SystemResetWarning,0827.8,5.00,000.00,025.8,024.7,000.0,033.9,027.3,11.8,0000.0,0015.21,0006.31,0005.57
2023-12-22 23:26:00,SystemResetWarning,0827.8,5.01,000.00,025.8,024.8,000.0,033.9,027.3,11.7,0000.0,0015.24,0006.29,0005.58
2023-12-22 23:27:00,SystemResetWarning,0827.8,5.00,000.00,025.8,024.9,000.0,033.9,027.4,11.7,0000.0,0015.26,0006.30,0005.59
2023-12-22 23:28:00,SystemResetWarning,0827.8,5.00,000.00,025.8,025.0,000.0,033.9,027.4,11.7,0000.0,0015.12,0006.34,0005.60
2023-12-22 23:29:00,SystemResetWarning,0827.8,5.00,000.00,025.9,025.0,000.0,034.0,027.5,11.6,0000.0,0014.48,0006.35,0005.62
2023-12-22 23:30:00,SystemResetWarning,0827.8,5.00,000.00,025.9,025.1,000.0,034.0,027.5,11.6,0000.0,0014.10,0006.38,0005.67
2023-12-22 23:31:00,SystemResetWarning,0827.8,4.99,000.00,025.9,025.2,000.0,034.0,027.5,11.6,0000.0,0013.99,0006.41,0005.69
2023-12-22 23:32:00,SystemResetWarning,0827.8,5.00,000.00,026.0,025.2,000.0,034.0,027.5,11.6,0000.0,0013.77,0006.41,0005.72
2023-12-22 23:33:00,SystemResetWarning,0827.8,5.01,000.00,026.0,025.2,000.0,034.1,027.6,11.6,0000.0,0013.95,0006.41,0005.75
2023-12-22 23:34:00,SystemResetWarning,0827.8,5.01,000.00,026.0,025.3,000.0,034.1,027.6,11.5,0000.0,0014.90,0006.45,0005.78
2023-12-22 23:35:00,SystemResetWarning,0827.8,4.99,000.00,026.1,025.3,000.0,034.1,027.6,11.5,0000.0,0014.33,0006.45,0005.81
2023-12-22 23:36:00,SystemResetWarning,0827.8,4.99,000.00,026.1,025.4,000.0,034.1,027.6,11.5,0000.0,0014.27,0006.49,0005.83
2023-12-22 23:37:00,SystemResetWarning,0827.8,4.99,000.00,026.1,025.4,000.0,034.2,027.7,11.4,0000.0,0014.49,0006.53,0005.86
2023-12-22 23:38:00,SystemResetWarning,0827.8,4.99,000.00,026.1,025.4,000.0,034.2,027.7,11.4,0000.0,0014.27,0006.56,0005.88
2023-12-22 23:39:00,SystemResetWarning,0827.8,5.00,000.00,026.2,025.2,000.0,034.2,027.7,11.3,0000.0,0014.24,0006.53,0005.89
2023-12-22 23:40:00,SystemResetWarning,0827.8,5.00,000.00,026.1,023.3,000.0,034.2,027.6,11.4,0000.0,0014.47,0006.58,0005.92
2023-12-22 23:41:00,SystemResetWarning,0827.8,5.01,000.00,026.0,022.1,000.0,034.2,027.3,11.5,0000.0,0013.79,0006.63,0005.94
2023-12-22 23:42:00,SystemResetWarning,0827.8,5.02,000.00,025.9,022.1,000.0,034.1,026.8,11.5,0000.0,0014.44,0006.62,0005.93
2023-12-22 23:43:00,SystemResetWarning,0827.8,4.99,000.00,025.7,022.5,000.0,034.1,026.6,11.6,0000.0,0014.72,0006.67,0005.92
2023-12-22 23:44:00,SystemResetWarning,0827.8,5.00,000.00,025.6,022.8,000.0,034.0,026.7,11.7,0000.0,0014.92,0006.67,0005.92
2023-12-22 23:45:00,SystemResetWarning,0827.8,5.00,000.00,025.6,023.2,000.0,034.0,026.8,11.7,0000.0,0013.71,0006.71,0005.91
2023-12-22 23:46:00,SystemResetWarning,0827.8,4.98,000.00,025.6,023.5,000.0,034.0,026.8,11.8,0000.0,0014.38,0006.72,0005.90
2023-12-22 23:47:00,SystemResetWarning,0827.8,5.00,000.00,025.6,023.8,000.0,033.9,026.9,11.7,0000.0,0014.28,0006.60,0005.81
2023-12-22 23:48:00,SystemResetWarning,0827.9,5.01,000.00,025.6,024.0,000.0,033.9,027.0,11.7,0000.0,0013.66,0006.50,0005.70
2023-12-22 23:49:00,SystemResetWarning,0827.9,4.99,000.00,025.6,024.1,000.0,033.9,027.0,11.7,0000.0,0013.64,0006.44,0005.64
2023-12-22 23:50:00,SystemResetWarning,0827.8,5.01,000.00,025.6,024.3,000.0,033.9,027.0,11.7,0000.0,0013.71,0006.40,0005.58
2023-12-22 23:51:00,SystemResetWarning,0827.8,5.01,000.00,025.6,024.4,000.0,033.9,027.1,11.6,0000.0,0013.44,0006.30,0005.49
2023-12-22 23:52:00,SystemResetWarning,0827.8,4.99,000.00,025.6,024.5,000.0,033.9,027.1,11.6,0000.0,0013.06,0006.16,0005.39
2023-12-22 23:53:00,SystemResetWarning,0827.8,4.99,000.00,025.7,024.6,000.0,033.9,027.1,11.6,0000.0,0012.80,0006.12,0005.33
2023-12-22 23:54:00,SystemResetWarning,0827.8,4.99,000.00,025.7,024.7,000.0,033.9,027.2,11.7,0000.0,0012.57,0006.04,0005.29
2023-12-22 23:55:00,SystemResetWarning,0827.8,5.00,000.00,025.7,024.7,000.0,033.9,027.2,11.7,0000.0,0012.38,0005.99,0005.24
2023-12-22 23:56:00,SystemResetWarning,0827.8,5.01,000.00,025.7,024.8,000.0,033.9,027.2,11.6,0000.0,0012.39,0005.93,0005.19
2023-12-22 23:57:00,SystemResetWarning,0827.9,5.01,000.00,025.7,024.8,000.0,034.0,027.3,11.6,0000.0,0011.86,0005.91,0005.15
2023-12-22 23:58:00,SystemResetWarning,0827.7,4.99,000.00,025.8,024.9,000.0,034.0,027.3,11.6,0000.0,0011.84,0005.95,0005.18
2023-12-22 23:59:00,SystemResetWarning,0827.8,4.99,000.00,025.8,024.9,000.0,034.0,027.3,11.6,0000.0,0012.10,0005.98,0005.23
